User: anonymous   Login
Location: Wildcat Hills Observatory
(41.6350°N, 103.6812°W)
Time: 03:05:33
(UTC-07:00)
Language:

Cosmos 1634 Rocket - Orbit

View from above orbital plane
View from above orbital plane
View from above satellite
View from above satellite

Ground track
Ground track

The orbit data is extracted from the following two-line orbital elements,

1 15598U 85022B   17017.15566045  .00000109  00000-0  95561-4 0  9993
2 15598  82.9351 219.3564 0022312 168.6863 331.3878 13.76558565599687
Epoch (UTC): 17 January 2017 03:44:09
Eccentricity: 0.0022312
inclination: 82.9351°
perigee height: 960 km
apogee height: 992 km
right ascension of ascending node: 219.3564°
argument of perigee: 168.6863°
revolutions per day: 13.76558565
mean anomaly at epoch: 331.3878°
orbit number at epoch: 59968

The dashed part of the orbit path shows where the satellite is in the earth's shadow,  

DLR